KR8N Weather Reports


time (UTC)temp
F
wind
direction
speed
knots
gust
knots
rain 1hr
in
rain 24hr
in
rain mn
in
humidity
%
barometer
mb
20260504070148 45 94 0.0 0.0 0.00 0.00 0.00 71 1018.4
20260504060109 46 77 0.0 0.0 0.00 0.00 0.00 65 1019.1
20260504050537 47 83 0.0 0.0 0.00 0.00 0.00 65 1019.3
20260504045531 47 83 0.0 0.0 0.00 0.00 0.00 64 1019.3
20260504045026 47 83 0.0 0.0 0.00 0.00 0.00 65 1019.2
20260504044524 47 117 0.9 0.9 0.00 0.00 0.00 62 1019.3
20260504044021 47 106 0.0 0.0 0.00 0.00 0.00 60 1019.1
20260504043518 47 56 0.9 0.9 0.00 0.00 0.00 67 1019.1
20260504043015 47 57 0.0 0.0 0.00 0.00 0.00 65 1019.4
20260504042512 47 57 0.0 0.0 0.00 0.00 0.00 66 1019.2
20260504042009 47 57 0.0 0.0 0.00 0.00 0.00 63 1019.1
20260504041505 47 57 0.0 0.0 0.00 0.00 0.00 63 1019.1
20260504041001 47 57 0.0 0.0 0.00 0.00 0.00 63 1019.0
20260504040459 47 57 0.0 0.0 0.00 0.00 0.00 64 1019.2
20260504035954 47 57 0.0 0.0 0.00 0.00 0.00 64 1019.2
20260504035452 47 57 0.0 0.0 0.00 0.00 0.00 61 1019.3
20260504034948 47 57 0.0 0.0 0.00 0.00 0.00 62 1019.1
20260504034446 47 57 0.0 0.0 0.00 0.00 0.00 62 1019.2
20260504033943 47 57 0.0 0.0 0.00 0.00 0.00 61 1019.0
20260504033441 47 57 0.0 0.0 0.00 0.00 0.00 63 1019.0
20260504032938 47 57 0.0 0.0 0.00 0.00 0.00 64 1019.1
20260504032434 47 57 0.0 0.0 0.00 0.00 0.00 62 1019.0
20260504031931 47 57 0.0 0.0 0.00 0.00 0.00 62 1019.2
20260504031428 47 57 0.0 0.0 0.00 0.00 0.00 63 1019.1
20260504030925 47 56 0.0 0.0 0.00 0.00 0.00 64 1018.9
20260504030422 47 49 0.9 0.9 0.00 0.00 0.00 65 1018.8
20260504025918 47 91 0.0 0.0 0.00 0.00 0.00 63 1018.7
20260504025415 47 91 0.0 0.0 0.00 0.00 0.00 63 1019.1
20260504024912 47 91 0.0 0.0 0.00 0.00 0.00 64 1018.8
20260504024409 47 92 0.9 0.9 0.00 0.00 0.00 59 1018.9
20260504023906 46 89 0.0 0.0 0.00 0.00 0.00 63 1018.9
20260504023402 47 80 0.0 0.0 0.00 0.00 0.00 61 1019.0
20260504022857 47 80 0.0 0.0 0.00 0.00 0.00 59 1019.1
20260504022354 46 80 0.0 0.0 0.00 0.00 0.00 58 1018.9
20260504021851 46 80 0.0 0.0 0.00 0.00 0.00 57 1018.9
20260504021348 45 80 0.0 0.0 0.00 0.00 0.00 59 1019.1
20260504020845 45 80 0.0 0.0 0.00 0.00 0.00 58 1019.0
20260504020342 45 80 0.0 0.0 0.00 0.00 0.00 59 1018.8
20260504015838 45 80 0.0 0.0 0.00 0.00 0.00 60 1019.2
20260504015334 44 80 0.0 0.0 0.00 0.00 0.00 58 1019.0
20260504014831 44 80 0.0 0.0 0.00 0.00 0.00 60 1019.0
20260504014326 45 80 0.0 0.0 0.00 0.00 0.00 63 1018.8
20260504013825 45 80 0.0 0.0 0.00 0.00 0.00 58 1019.0
20260504013322 46 80 0.0 0.0 0.00 0.00 0.00 55 1018.7
20260504012819 46 80 0.0 0.0 0.00 0.00 0.00 51 1018.6
20260504012317 47 80 0.0 0.0 0.00 0.00 0.00 50 1018.7
20260504011814 47 80 0.0 0.0 0.00 0.00 0.00 50 1018.7
20260504011310 47 80 0.0 0.0 0.00 0.00 0.00 49 1018.5
20260504010806 47 80 0.0 0.0 0.00 0.00 0.00 49 1018.8
20260504010301 48 80 0.0 0.0 0.00 0.00 0.00 47 1018.6
20260504005759 48 80 0.0 0.0 0.00 0.00 0.00 49 1018.5
20260504005255 48 80 0.0 0.0 0.00 0.00 0.00 48 1018.6
20260504004753 48 80 0.0 0.0 0.00 0.00 0.00 49 1018.4
20260504004250 49 80 0.0 0.0 0.00 0.00 0.00 47 1018.4
20260504003747 49 80 0.0 0.0 0.00 0.00 0.00 45 1018.4
20260504003244 50 80 0.0 0.0 0.00 0.00 0.00 43 1018.4
20260504002740 50 80 0.0 0.0 0.00 0.00 0.00 42 1018.5
20260504002237 51 80 0.0 0.0 0.00 0.00 0.00 40 1018.2
20260504001735 51 80 0.0 0.0 0.00 0.00 0.00 40 1018.4
20260504001232 52 80 0.0 0.0 0.00 0.00 0.00 39 1018.3
20260504000728 53 79 0.0 0.0 0.00 0.00 0.00 38 1018.4
20260504000226 54 79 0.0 0.0 0.00 0.00 0.00 37 1018.2
20260503235724 54 74 0.0 0.0 0.00 0.00 0.00 36 1018.5
20260503235221 55 15 1.7 1.7 0.00 0.00 0.00 34 1018.4
20260503234718 55 73 0.0 0.0 0.00 0.00 0.00 35 1018.5
20260503234216 57 31 0.9 0.9 0.00 0.00 0.00 33 1018.5
20260503233713 57 63 0.9 0.9 0.00 0.00 0.00 32 1018.3
20260503233209 57 19 0.9 0.9 0.00 0.00 0.00 33 1018.4
20260503232706 58 347 0.9 0.9 0.00 0.00 0.00 30 1018.5
20260503232203 58 306 4.3 5.2 0.00 0.00 0.00 30 1018.6
20260503231701 58 80 0.0 0.0 0.00 0.00 0.00 31 1018.6
20260503231157 58 36 0.9 0.9 0.00 0.00 0.00 31 1018.4
20260503230654 58 271 2.6 2.6 0.00 0.00 0.00 30 1018.6
20260503230151 59 58 0.0 0.0 0.00 0.00 0.00 30 1018.2
20260503225648 59 114 0.9 0.9 0.00 0.00 0.00 32 1018.5
20260503225148 59 59 0.9 0.9 0.00 0.00 0.00 29 1018.6
20260503224646 59 310 1.7 2.6 0.00 0.00 0.00 30 1018.8
20260503224143 59 132 1.7 1.7 0.00 0.00 0.00 30 1018.5
20260503223641 59 319 4.3 5.2 0.00 0.00 0.00 29 1018.9
20260503223138 58 101 0.9 0.9 0.00 0.00 0.00 32 1018.9
20260503222635 58 312 2.6 2.6 0.00 0.00 0.00 29 1018.8
20260503222132 58 272 0.9 1.7 0.00 0.00 0.00 30 1018.6
20260503221631 58 295 4.3 7.0 0.00 0.00 0.00 28 1018.9
20260503221128 59 288 6.1 7.8 0.00 0.00 0.00 28 1018.7
20260503220625 59 314 6.1 7.0 0.00 0.00 0.00 28 1018.9
20260503220121 59 127 1.7 1.7 0.00 0.00 0.00 31 1018.7
20260503215618 59 286 0.9 1.7 0.00 0.00 0.00 31 1018.7
20260503215115 59 128 0.9 0.9 0.00 0.00 0.00 27 1018.7
20260503214614 60 339 0.9 1.7 0.00 0.00 0.00 28 1018.7
20260503214109 59 330 1.7 2.6 0.00 0.00 0.00 27 1018.8
20260503213609 59 150 1.7 1.7 0.00 0.00 0.00 26 1018.7
20260503213104 59 257 2.6 3.5 0.00 0.00 0.00 29 1019.0
20260503212602 59 268 3.5 5.2 0.00 0.00 0.00 29 1018.6
20260503212059 59 304 1.7 1.7 0.00 0.00 0.00 30 1018.7
20260503211556 59 207 3.5 3.5 0.00 0.00 0.00 29 1018.8
20260503211051 60 12 1.7 1.7 0.00 0.00 0.00 29 1018.9
20260503210549 60 343 0.9 0.9 0.00 0.00 0.00 31 1018.8
20260503210044 59 306 1.7 1.7 0.00 0.00 0.00 30 1018.8
20260503205541 58 107 0.9 0.9 0.00 0.00 0.00 31 1019.1
20260503205037 59 169 1.7 2.6 0.00 0.00 0.00 32 1019.2
20260503204534 60 142 1.7 1.7 0.00 0.00 0.00 29 1019.0
20260503204031 60 27 0.9 0.9 0.00 0.00 0.00 32 1019.0
20260503203529 60 72 0.9 0.9 0.00 0.00 0.00 33 1019.2
20260503203020 59 248 1.7 1.7 0.00 0.00 0.00 38 1019.1
20260503202518 58 100 0.9 0.9 0.00 0.00 0.00 32 1019.2
20260503202016 59 69 0.0 0.0 0.00 0.00 0.00 31 1019.3
20260503201514 59 289 3.5 6.1 0.00 0.00 0.00 34 1019.5
20260503201011 58 81 0.0 0.9 0.00 0.00 0.00 37 1019.4
20260503200507 58 356 3.5 5.2 0.00 0.00 0.00 30 1019.6
20260503200004 59 283 4.3 5.2 0.00 0.00 0.00 31 1019.9
20260503195500 57 138 0.9 0.9 0.00 0.00 0.00 29 1020.0
20260503194957 58 116 1.7 2.6 0.00 0.00 0.00 35 1020.0
20260503194454 57 287 2.6 2.6 0.00 0.00 0.00 30 1020.2
20260503193950 57 283 0.9 0.9 0.00 0.00 0.00 30 1020.1
20260503193446 58 41 2.6 1.7 0.00 0.00 0.00 31 1020.1
20260503192941 59 326 3.5 6.1 0.00 0.00 0.00 31 1020.2
20260503192438 59 119 0.9 0.9 0.00 0.00 0.00 32 1020.2
20260503191933 58 115 1.7 1.7 0.00 0.00 0.00 32 1020.3
20260503191431 58 86 0.9 1.7 0.00 0.00 0.00 33 1020.5
20260503190927 57 259 0.9 1.7 0.00 0.00 0.00 36 1020.7
20260503190425 57 320 3.5 3.5 0.00 0.00 0.00 34 1020.7
20260503185922 56 287 2.6 3.5 0.00 0.00 0.00 36 1020.8
20260503185418 57 294 2.6 2.6 0.00 0.00 0.00 32 1021.0
20260503184917 56 189 1.7 2.6 0.00 0.00 0.00 38 1020.8
20260503184414 56 71 3.5 3.5 0.00 0.00 0.00 37 1021.1
20260503183910 54 99 2.6 3.5 0.00 0.00 0.00 35 1021.1
20260503183407 54 288 2.6 2.6 0.00 0.00 0.00 35 1021.1
20260503182904 55 296 3.5 3.5 0.00 0.00 0.00 35 1021.1
20260503182403 55 296 2.6 3.5 0.00 0.00 0.00 39 1021.3
20260503181859 56 276 4.3 5.2 0.00 0.00 0.00 31 1021.1
20260503181356 55 22 0.9 0.9 0.00 0.00 0.00 35 1021.3
20260503180853 53 309 1.7 1.7 0.00 0.00 0.00 36 1021.4
20260503180351 53 297 4.3 6.1 0.00 0.00 0.00 33 1021.4
20260503175847 53 275 2.6 2.6 0.00 0.00 0.00 37 1021.3
20260503175345 54 295 1.7 0.9 0.00 0.00 0.00 38 1021.4
20260503174840 54 252 1.7 1.7 0.00 0.00 0.00 41 1021.4
20260503174339 54 66 1.7 3.5 0.00 0.00 0.00 36 1021.7
20260503173834 53 163 1.7 1.7 0.00 0.00 0.00 37 1021.7
20260503173331 53 303 3.5 5.2 0.00 0.00 0.00 35 1021.9
20260503172827 52 72 1.7 2.6 0.00 0.00 0.00 34 1021.8
20260503172325 54 33 3.5 6.1 0.00 0.00 0.00 35 1022.0
20260503171821 54 52 0.9 0.9 0.00 0.00 0.00 41 1021.9
20260503171318 53 72 0.9 0.9 0.00 0.00 0.00 38 1021.9
20260503170815 52 24 0.9 1.7 0.00 0.00 0.00 38 1022.2
20260503170312 52 253 2.6 3.5 0.00 0.00 0.00 40 1022.1
20260503150704 48 355 1.7 1.7 0.00 0.00 0.00 43 1023.0
20260503150200 48 15 1.7 1.7 0.00 0.00 0.00 42 1022.8
20260503140125 46 302 2.6 3.5 0.00 0.00 0.00 43 1023.0
20260503131054 43 284 2.6 2.6 0.00 0.00 0.00 53 1022.8
20260503130551 43 292 2.6 2.6 0.00 0.00 0.00 53 1022.4
20260503110442 30 57 0.0 0.0 0.00 0.00 0.00 94 1021.3
20260503090332 30 56 0.0 0.0 0.00 0.00 0.00 92 1020.4
20260503081300 32 56 0.0 0.0 0.00 0.00 0.00 89 1020.1
20260503080756 32 57 0.0 0.0 0.00 0.00 0.00 88 1020.0
20260503080254 32 56 0.0 0.0 0.00 0.00 0.00 87 1019.9
20260503072730 35 55 0.0 0.0 0.00 0.00 0.00 80 1019.7